Home > Weather > Anchorage > Past weeks

Flag for U.S.A. Weather for the Past 2 Weeks in Anchorage, Alaska, U.S.A.

Now
32 °F

Overcast.


Feels Like: 27 °F
Forecast: 20 / 27 °F
Wind: 5 mph from Northeast

Location: Lake Hood Seaplane

Current Time: Feb 5, 2016 at 10:44:13 PM

Latest Report: Feb 5, 2016 at 9:53 PM


Visibility: 10 mi

Pressure: 29.42 "Hg

Humidity: 88%

Dew point: 29 °F

Location of AnchorageLocation

Historic Weather in Anchorage — Graph

°F

Anchorage Temperature Yesterday

Maximum temperature yesterday: 45 °F (at 10:53 PM)
Minimum temperature yesterday: 28 °F (at 12:53 AM)
Average temperature yesterday: 33 °F

High & Low Weather Summary for the Past Weeks

 TemperatureHumidityPressure
High45 °F (Feb 4, 10:53 PM)96% (Jan 30, 9:53 AM)30.06 "Hg (Jan 30, 9:53 AM)
Low14 °F (Feb 2, 3:53 AM)44% (Feb 4, 10:53 PM)28.59 "Hg (Jan 27, 1:53 PM)
Average27 °F76%29.35 "Hg
* Reported Jan 21 8:53 PM — Feb 5 8:53 PM, Anchorage, Weather by CustomWeather, © 2016

Note: Actual official high and low records may vary slightly from our data, if they occured in-between our weather recording intervals... More about our weather records

Advertising

Anchorage Weather History for the Previous 24 Hours

 ConditionsComfort  
Time TempWeatherWind HumidityBarometerVisibility
8:53 PM
Fri, Feb 5
33 °FLow clouds.3 mph88%29.40 "Hg10 mi
7:53 PM34 °FOvercast.7 mph88%29.37 "Hg10 mi
6:53 PM37 °FLight rain. Overcast.7 mph76%29.35 "Hg10 mi
5:53 PM37 °FLight rain. Overcast.7 mph70%29.31 "Hg10 mi
4:53 PM34 °FMostly cloudy.No wind64%29.29 "Hg10 mi
3:53 PM34 °FMostly cloudy.No wind64%29.27 "Hg10 mi
2:53 PM34 °FOvercast.No wind64%29.25 "Hg10 mi
1:53 PM32 °FSunny.3 mph64%29.24 "Hg10 mi
12:53 PM33 °FPartly sunny.6 mph63%29.21 "Hg10 mi
11:53 AM29 °FPassing clouds.3 mph75%29.20 "Hg10 mi
10:53 AM29 °FSunny.No wind75%29.17 "Hg10 mi
9:53 AM29 °FSunny.3 mph75%29.15 "Hg10 mi
8:53 AM30 °FClear.3 mph72%29.12 "Hg10 mi
7:53 AM29 °FClear.6 mph79%29.10 "Hg10 mi
6:53 AM30 °FClear.No wind79%29.09 "Hg10 mi
5:53 AM28 °FClear.No wind81%29.08 "Hg10 mi
4:53 AM30 °FClear.5 mph75%29.06 "Hg10 mi
3:53 AM29 °FClear.9 mph75%29.05 "Hg10 mi
2:53 AM32 °FPassing clouds.6 mph73%29.03 "Hg10 mi
1:53 AM31 °FPassing clouds.14 mph79%29.01 "Hg10 mi
12:53 AM38 °FClear.10 mph63%28.99 "Hg10 mi
11:53 PM
Thu, Feb 4
36 °FClear.9 mph73%28.96 "Hg10 mi
10:53 PM45 °FClear.14 mph44%28.92 "Hg10 mi
Weather by CustomWeather, © 2016

See weather overviewHow to use our weather pages